EN

Hourly Weather Alio

Today, 26 January, Tuesday

Time Temperature Precipitation Wind Pressure Humidity
00:00 +7°C° 0.1 mm 3 mps 737 mmHg 87%
01:00 +7°C° 0 mm 3 mps 738 mmHg 86%
02:00 +7°C° 0 mm 3 mps 738 mmHg 84%
03:00 +7°C° 0 mm 3 mps 738 mmHg 83%
04:00 +7°C° 0 mm 3 mps 739 mmHg 82%
05:00 +5°C° 0 mm 3 mps 739 mmHg 81%
06:00 +6°C° 0 mm 2 mps 740 mmHg 81%
07:00 +6°C° 0 mm 2 mps 740 mmHg 77%
08:00 +7°C° 0 mm 2 mps 740 mmHg 73%
09:00 +7°C° 0 mm 2 mps 741 mmHg 69%
10:00 +8°C° 0 mm 2 mps 741 mmHg 65%
11:00 +9°C° 0 mm 3 mps 741 mmHg 61%
12:00 +10°C° 0 mm 3 mps 741 mmHg 57%
13:00 +11°C° 0 mm 3 mps 741 mmHg 57%
14:00 +11°C° 0 mm 3 mps 740 mmHg 56%
15:00 +11°C° 0 mm 4 mps 740 mmHg 56%
16:00 +10°C° 0 mm 3 mps 740 mmHg 61%
17:00 +9°C° 0 mm 3 mps 740 mmHg 65%
18:00 +7°C° 0 mm 2 mps 740 mmHg 70%
19:00 +7°C° 0 mm 2 mps 740 mmHg 67%
20:00 +7°C° 0 mm 2 mps 740 mmHg 64%
21:00 +7°C° 0 mm 2 mps 740 mmHg 61%
22:00 +7°C° 0 mm 2 mps 740 mmHg 61%
23:00 +6°C° 0 mm 2 mps 740 mmHg 62%

Tomorrow, 27 January, Wednesday

Time Temperature Precipitation Wind Pressure Humidity
00:00 +6°C° 0 mm 2 mps 740 mmHg 63%
01:00 +6°C° 0 mm 2 mps 740 mmHg 66%
02:00 +6°C° 0 mm 2 mps 739 mmHg 68%
03:00 +6°C° 0 mm 2 mps 739 mmHg 71%
04:00 +6°C° 0 mm 2 mps 739 mmHg 74%
05:00 +6°C° 0 mm 2 mps 739 mmHg 76%
06:00 +6°C° 0 mm 2 mps 739 mmHg 79%
07:00 +7°C° 0 mm 2 mps 739 mmHg 77%
08:00 +8°C° 0 mm 2 mps 740 mmHg 75%
09:00 +9°C° 0 mm 2 mps 740 mmHg 73%
10:00 +10°C° 0 mm 2 mps 740 mmHg 70%
11:00 +13°C° 0 mm 1 mps 740 mmHg 66%
12:00 +15°C° 0 mm 1 mps 740 mmHg 63%
13:00 +15°C° 0 mm 1 mps 740 mmHg 62%
14:00 +15°C° 0 mm 2 mps 740 mmHg 62%
15:00 +16°C° 0 mm 2 mps 739 mmHg 61%
16:00 +14°C° 0 mm 2 mps 740 mmHg 67%
17:00 +13°C° 0 mm 1 mps 740 mmHg 72%
18:00 +12°C° 0 mm 1 mps 740 mmHg 77%
19:00 +11°C° 0 mm 1 mps 741 mmHg 78%
20:00 +11°C° 0 mm 1 mps 741 mmHg 79%
21:00 +11°C° 0 mm 1 mps 741 mmHg 80%
22:00 +10°C° 0 mm 1 mps 741 mmHg 81%
23:00 +10°C° 0 mm 1 mps 742 mmHg 82%

Day after tomorrow, 28 January, Thursday

Time Temperature Precipitation Wind Pressure Humidity
00:00 +10°C° 0 mm 1 mps 742 mmHg 82%
01:00 +10°C° 0 mm 1 mps 742 mmHg 84%
02:00 +10°C° 0 mm 1 mps 741 mmHg 85%
03:00 +10°C° 0 mm 1 mps 741 mmHg 86%
04:00 +9°C° 0 mm 2 mps 741 mmHg 86%
05:00 +9°C° 0 mm 2 mps 741 mmHg 87%
06:00 +8°C° 0 mm 2 mps 741 mmHg 88%
07:00 +9°C° 0 mm 2 mps 741 mmHg 85%
08:00 +10°C° 0 mm 2 mps 741 mmHg 83%
09:00 +12°C° 0 mm 2 mps 741 mmHg 81%
10:00 +12°C° 0 mm 3 mps 741 mmHg 76%
11:00 +14°C° 0 mm 3 mps 741 mmHg 71%
12:00 +15°C° 0 mm 4 mps 741 mmHg 66%
13:00 +17°C° 0 mm 4 mps 740 mmHg 66%
14:00 +17°C° 0 mm 4 mps 740 mmHg 66%
15:00 +17°C° 0 mm 4 mps 739 mmHg 66%
16:00 +15°C° 0 mm 4 mps 739 mmHg 70%
17:00 +14°C° 0 mm 3 mps 739 mmHg 74%
18:00 +13°C° 0 mm 3 mps 739 mmHg 77%
19:00 +13°C° 0 mm 3 mps 740 mmHg 78%
20:00 +13°C° 0 mm 3 mps 740 mmHg 79%
21:00 +13°C° 0 mm 3 mps 740 mmHg 80%
22:00 +13°C° 0 mm 3 mps 740 mmHg 80%
23:00 +12°C° 0 mm 3 mps 740 mmHg 81%

29 January, Friday

Time Temperature Precipitation Wind Pressure Humidity
00:00 +12°C° 0 mm 3 mps 740 mmHg 81%
01:00 +12°C° 0 mm 3 mps 739 mmHg 81%
02:00 +12°C° 0 mm 4 mps 739 mmHg 81%
03:00 +12°C° 0 mm 4 mps 739 mmHg 81%
04:00 +12°C° 0 mm 4 mps 738 mmHg 82%
05:00 +12°C° 0 mm 4 mps 738 mmHg 82%
06:00 +12°C° 0 mm 4 mps 738 mmHg 82%
07:00 +12°C° 0 mm 4 mps 738 mmHg 81%
08:00 +13°C° 0 mm 4 mps 738 mmHg 80%
09:00 +13°C° 0 mm 4 mps 738 mmHg 79%
10:00 +15°C° 0 mm 5 mps 737 mmHg 72%
11:00 +16°C° 0 mm 6 mps 737 mmHg 66%
12:00 +18°C° 0 mm 8 mps 737 mmHg 59%
13:00 +18°C° 0 mm 8 mps 737 mmHg 57%
14:00 +18°C° 0 mm 9 mps 736 mmHg 55%
15:00 +18°C° 0 mm 9 mps 736 mmHg 53%
16:00 +17°C° 0 mm 8 mps 736 mmHg 56%
17:00 +16°C° 0 mm 7 mps 736 mmHg 59%
18:00 +16°C° 0 mm 6 mps 736 mmHg 63%
19:00 +15°C° 0 mm 5 mps 736 mmHg 66%
20:00 +14°C° 0 mm 4 mps 736 mmHg 69%
21:00 +13°C° 0 mm 3 mps 736 mmHg 73%
22:00 +13°C° 0 mm 3 mps 736 mmHg 74%
23:00 +14°C° 0 mm 2 mps 736 mmHg 76%

30 January, Saturday

Time Temperature Precipitation Wind Pressure Humidity
00:00 +13°C° 0 mm 2 mps 735 mmHg 77%
01:00 +13°C° 0 mm 1 mps 734 mmHg 78%
02:00 +13°C° 0 mm 1 mps 734 mmHg 79%
03:00 +13°C° 0 mm 1 mps 733 mmHg 80%
04:00 +13°C° 0.1 mm 1 mps 732 mmHg 80%
05:00 +13°C° 0.1 mm 1 mps 731 mmHg 80%
06:00 +13°C° 0.1 mm 2 mps 730 mmHg 79%
07:00 +12°C° 0.4 mm 3 mps 730 mmHg 77%
08:00 +12°C° 0.4 mm 5 mps 730 mmHg 76%
09:00 +12°C° 0.4 mm 7 mps 729 mmHg 74%
10:00 +12°C° 0 mm 9 mps 729 mmHg 71%
11:00 +12°C° 0 mm 10 mps 729 mmHg 69%
12:00 +12°C° 0 mm 12 mps 729 mmHg 67%
13:00 +12°C° 0 mm 12 mps 729 mmHg 66%
14:00 +13°C° 0 mm 12 mps 729 mmHg 65%
15:00 +13°C° 0 mm 12 mps 729 mmHg 64%
16:00 +12°C° 0 mm 11 mps 730 mmHg 67%
17:00 +12°C° 0 mm 10 mps 730 mmHg 70%
18:00 +11°C° 0 mm 8 mps 731 mmHg 73%
19:00 +10°C° 0 mm 7 mps 731 mmHg 75%
20:00 +10°C° 0 mm 6 mps 732 mmHg 77%
21:00 +9°C° 0 mm 6 mps 733 mmHg 79%
22:00 +9°C° 0 mm 5 mps 733 mmHg 80%
23:00 +8°C° 0 mm 4 mps 733 mmHg 80%

31 January, Sunday

Time Temperature Precipitation Wind Pressure Humidity
00:00 +8°C° 0 mm 4 mps 733 mmHg 81%
01:00 +8°C° 0 mm 4 mps 734 mmHg 81%
02:00 +7°C° 0 mm 4 mps 734 mmHg 81%
03:00 +7°C° 0 mm 4 mps 734 mmHg 82%
04:00 +7°C° 0 mm 4 mps 734 mmHg 80%
05:00 +7°C° 0 mm 4 mps 734 mmHg 79%
06:00 +7°C° 0 mm 4 mps 734 mmHg 77%
07:00 +7°C° 0 mm 4 mps 734 mmHg 72%
08:00 +9°C° 0 mm 3 mps 734 mmHg 67%
09:00 +9°C° 0 mm 3 mps 735 mmHg 62%
10:00 +11°C° 0 mm 3 mps 734 mmHg 58%
11:00 +12°C° 0 mm 4 mps 734 mmHg 55%
12:00 +14°C° 0 mm 4 mps 733 mmHg 51%
13:00 +14°C° 0 mm 6 mps 733 mmHg 51%
14:00 +15°C° 0 mm 7 mps 732 mmHg 51%
15:00 +16°C° 0 mm 8 mps 732 mmHg 50%
16:00 +16°C° 0 mm 8 mps 732 mmHg 53%
17:00 +15°C° 0 mm 9 mps 732 mmHg 55%
18:00 +13°C° 0 mm 9 mps 732 mmHg 57%
19:00 +13°C° 0 mm 9 mps 732 mmHg 58%
20:00 +13°C° 0 mm 10 mps 733 mmHg 58%
21:00 +13°C° 0 mm 10 mps 733 mmHg 59%
22:00 +12°C° 0 mm 12 mps 733 mmHg 56%
23:00 +12°C° 0 mm 13 mps 733 mmHg 52%
Show more